Location: Springfield
(37.2150°N, 93.2980°W)
Time: 08:37:31
(UTC-05:00)

Daily predictions for brighter satellites

Satellite Brightness Start Highest point End
(mag) Time Altitude Azimuth Time Altitude Azimuth Time Altitude Azimuth
Cosmos 1725 Rocket 4.2 20:42:34 10° N 20:48:52 79° W 20:55:05 10° S
Cosmos 1242 Rocket 3.4 20:46:51 10° SSW 20:50:30 58° W 20:54:12 10° N
H-2A R/B 2.9 20:46:58 10° SSE 20:50:51 63° ENE 20:54:47 10° N
Cosmos 2098 Rocket 2.6 20:47:54 10° N 20:51:09 61° E 20:55:09 10° SSE
Cosmos 1844 3.9 20:47:04 10° NNW 20:52:52 80° WSW 20:58:38 10° SSE
Lacrosse 5 3.8 20:48:15 10° WSW 20:52:53 35° NW 20:57:31 10° NNE
Cosmos 1844 Rocket 3.4 20:48:26 10° NNW 20:53:57 57° WSW 20:59:27 10° S
ATLAS CENTAUR R/B 1.9 20:50:30 10° SSW 20:55:24 88° ESE 21:00:29 10° NNE
Cosmos 1980 4.1 20:50:22 10° SSW 20:56:01 70° WNW 21:01:43 10° NNE
Cosmos 158 Rocket 3.9 20:51:14 10° S 20:56:12 71° ESE 21:01:22 10° NNE
USA 186 1.4 20:53:16 10° SSE 20:56:16 83° E 20:59:06 10° N
SeaSat 1 3.8 20:53:54 10° ESE 20:57:54 25° NE 21:01:54 10° N
Hubble Space Telescope 3.1 21:00:20 10° SW 21:02:01 12° SSW 21:03:41 10° S
Cosmos 2251 Rocket 3.5 20:57:30 10° S 21:02:44 66° ESE 21:08:02 10° NNE
RESURS DK-1 4.4 21:00:08 10° NW 21:03:36 26° WSW 21:07:01 10° SSW
FENGYUN 3A 3.7 20:59:05 10° SSE 21:04:27 89° WSW 21:09:51 10° NNW
Cosmos 1025 Rocket 3.0 21:00:07 10° S 21:04:30 77° E 21:08:53 10° N
Cosmos 1892 Rocket 3.8 21:00:16 10° SSE 21:04:31 50° E 21:08:51 10° NNE
Cosmos 2228 4.4 21:01:15 10° NNE 21:04:43 22° ENE 21:07:57 11° SE
MINOTAUR R/B 4.5 21:05:13 10° SSW 21:08:18 76° ESE 21:11:26 10° NNE
BREEZE-M DEB (TANK) 3.5 21:08:57 10° NNW 21:11:26 25° NNE 21:13:12 11° E
Atlas Centaur 2 3.8 21:06:08 10° SSW 21:12:29 29° SSE 21:19:27 10° E
OTV 4 1.9 21:10:57 10° W 21:13:28 25° SSW 21:15:32 13° SSE
ALOS 2.7 21:09:24 10° S 21:14:01 64° WSW 21:18:40 10° NNW
Meteor 2-17 Rocket 4.5 21:09:38 10° N 21:15:48 80° E 21:21:58 10° S
COSMOS 2455 4.2 21:13:20 10° SE 21:17:03 17° ESE 21:20:50 10° ENE
Cosmos 2237 Rocket 3.3 21:13:32 10° SW 21:18:56 49° WNW 21:24:24 10° N
Envisat 3.6 21:16:48 12° SE 21:21:03 40° ENE 21:25:46 10° N
ERS-1 Rocket 2.9 21:17:37 10° SSE 21:22:37 83° ENE 21:27:39 10° NNW
Cosmos 1939 Rocket 3.3 21:19:32 13° SE 21:23:03 47° ENE 21:27:04 10° N
Cosmos 1110 Rocket 4.1 21:18:46 10° NNW 21:24:04 68° ENE 21:28:42 13° SSE
Cosmos 2285 Rocket 4.3 21:18:13 10° N 21:24:24 54° ENE 21:29:39 15° SE
Cosmos 2278 Rocket 2.7 21:22:51 10° NNW 21:28:27 59° WSW 21:33:59 10° S
PSLV R/B 4.1 21:30:19 21° ESE 21:31:42 32° ENE 21:34:30 10° N
Cosmos 1726 Rocket 3.6 21:28:06 10° N 21:32:34 84° W 21:36:58 10° S
USA 234 3.9 21:27:51 12° ESE 21:33:36 48° NE 21:39:51 10° NW
Gbstr 26 Del rocket 4.5 21:30:49 10° NW 21:38:15 85° NE 21:44:31 19° SE
Lacrosse 5 rocket 2.8 21:35:11 10° WSW 21:38:46 37° NW 21:42:33 10° NNE
Cosmos 1464 Rocket 3.9 21:33:29 10° N 21:39:37 74° E 21:45:12 13° SSE
Cosmos 2058 Rocket 3.0 21:36:39 10° N 21:41:03 89° WSW 21:44:44 14° S
Cosmos 2369 Rocket 4.3 21:40:29 10° NNE 21:42:57 13° NE 21:45:24 10° ENE
SL-16 R/B 2.6 21:39:33 10° SSW 21:45:09 68° WNW 21:50:49 10° NNE
OAO 3 Copernicus 4.3 21:40:30 10° W 21:45:31 68° S 21:48:52 21° ESE
Abrixas rocket 3.7 21:43:49 10° NW 21:46:57 32° NNE 21:48:52 18° E
Cosmos 1666 2.7 21:43:19 10° N 21:47:12 63° E 21:49:17 25° SSE
Aureole 2 Rocket 2.6 21:43:39 10° SSW 21:47:44 77° ESE 21:51:29 10° NNE
Cosmos 1602 Rocket 3.7 21:45:02 17° SSE 21:48:18 55° E 21:52:41 10° NNE
Okean 2 3.7 21:44:27 10° SSW 21:48:36 69° W 21:52:47 10° N
ARGOS 4.2 21:48:12 20° ESE 21:50:50 30° ENE 21:55:30 10° N
H-2A R/B 3.9 21:50:29 12° E 21:52:14 14° ENE 21:54:38 10° NNE
Cosmos 1743 4.3 21:52:50 10° NNW 21:56:18 33° W 21:59:45 10° SSW
Cosmos 2034 Rocket 4.0 21:50:29 10° N 21:56:53 75° E 22:01:30 20° SSE
UNK 4.1 21:53:18 10° NNE 21:58:42 73° ESE 22:04:22 10° S
SPOT 1/Viking Rocket 4.0 21:57:45 26° SE 22:00:12 44° ENE 22:05:05 10° N
Cosmos 1812 Rocket 4.1 21:56:42 10° N 22:00:51 41° E 22:02:13 32° ESE
Cosmos 1461 3.7 21:58:15 10° NNW 22:02:16 37° NE 22:03:39 28° E
PSLV R/B 3.4 22:03:57 10° SW 22:07:25 56° SSE 22:07:54 51° ESE
H-2A R/B 3.7 22:08:28 10° SSW 22:12:09 30° W 22:15:56 10° NW
MetOp-B 4.1 22:10:02 28° SSE 22:12:58 84° ENE 22:18:21 10° NNW
Cosmos 1603 3.6 22:08:11 10° SSW 22:13:48 79° ESE 22:19:25 10° NNE
Cosmos 1515 4.2 22:13:48 41° E 22:13:55 41° E 22:17:34 10° NNE
DEBRIS 1.9 22:10:45 10° NW 22:14:56 84° NE 22:15:01 80° E
CZ-4 R/B 4.0 22:11:33 10° NNE 22:16:28 58° E 22:18:29 34° SSE
Geosat 4.0 22:12:41 10° NE 22:17:38 55° ESE 22:19:56 30° S
Milstar 3 Cent rocket 3.5 22:14:15 10° WSW 22:18:54 21° SSW 22:19:51 20° S
SPOT 5 3.1 22:17:32 25° S 22:19:58 56° WSW 22:24:16 10° NNW
Cosmos 1626 Rocket 4.0 22:18:55 17° SSW 22:22:17 60° W 22:26:40 10° N
Cosmos 1302 Rocket 4.4 22:24:18 10° NNW 22:29:26 58° WSW 22:31:50 30° S
SeaSat 1 3.4 22:32:58 25° SSW 22:35:12 40° WSW 22:39:50 10° NW
APEX 4.3 22:32:07 10° NW 22:36:11 51° WSW 22:37:52 35° SSW
Landsat 7 4.2 22:35:43 43° E 22:36:25 47° ENE 22:40:58 10° N
Cosmos 1953 Rocket 4.1 22:38:28 42° E 22:38:28 42° E 22:42:19 10° NNE
CZ-4B R/B 4.1 22:35:08 10° N 22:40:04 55° WNW 22:44:18 15° SSW
Meteor 2-12 Rocket 4.3 22:34:12 10° N 22:40:18 90° NE 22:42:43 39° S
Cosmos 1943 3.3 22:39:29 47° SE 22:40:27 53° ESE 22:45:58 10° NNE
DELTA 2 DEB (DPAF) 4.1 22:40:32 59° ESE 22:41:03 65° ENE 22:45:30 10° N
Cosmos 2346 Rocket 4.4 22:41:46 39° S 22:44:10 74° E 22:50:19 10° N
YAOGAN 6 3.4 22:47:30 41° WSW 22:47:52 43° W 22:51:27 10° NNW
Terra 2.2 22:51:59 47° E 22:52:13 47° ENE 22:56:47 10° N
CZ-4C R/B 3.4 22:53:47 84° S 22:53:56 89° WSW 22:58:09 10° NNW
Cosmos 1943 Rocket 3.8 22:55:45 10° N 22:59:48 20° NE 23:01:00 19° ENE
Atlas Centaur 2 3.2 22:53:49 10° WSW 23:01:38 49° S 23:03:19 44° SE
SL-08 RB Rocket 3.8 23:01:19 60° SW 23:01:47 65° W 23:06:19 10° NNW
COSMOS 2455 3.2 22:56:25 10° SW 23:02:22 65° WNW 23:08:21 10° NNE
Cosmos 407 Rocket 3.5 23:05:15 61° E 23:05:15 61° E 23:10:14 10° NNE
IGS 5A 4.0 23:06:01 50° NE 23:06:01 50° NE 23:09:30 10° N
USA 81 4.2 23:02:26 10° N 23:07:40 66° W 23:08:46 52° SW
ATLAS 3B R/B 2.8 23:05:15 34° SSW 23:08:52 72° ESE 23:16:26 10° NE
Cosmos-2242 4.4 23:05:41 10° NNE 23:08:43 29° NE 23:08:43 29° NE
Cosmos 1758 Rocket 3.7 23:13:15 69° N 23:13:15 69° N 23:17:08 10° N
USA 234 3.7 23:15:11 41° SSW 23:16:33 47° SW 23:22:50 10° NW
CARTOSAT-1 3.8 23:17:46 69° NNW 23:17:46 69° NNW 23:21:37 10° NNW
Cosmos 1953 4.1 23:14:57 10° NNE 23:17:03 23° NE 23:17:03 23° NE
Lacrosse 4 Rocket 2.9 23:26:58 29° NNE 23:26:58 29° NNE 23:29:03 10° NNE
Cosmos 2369 Rocket 2.0 23:22:07 10° NNW 23:27:48 88° ENE 23:28:01 84° SE
SL-24 R/B 4.5 23:23:19 10° N 23:28:13 74° W 23:28:21 73° W
ARGOS 4.4 23:29:43 29° WSW 23:30:57 32° W 23:35:46 10° NW
H-2A R/B 2.1 23:31:07 64° W 23:31:07 64° W 23:36:01 10° NNW
Meteor 1-22 Rocket 4.5 23:31:39 10° NNW 23:37:06 58° W 23:37:37 56° WSW
USA 238 DEB 4.2 23:39:28 45° E 23:39:28 45° E 23:45:16 10° NE
USA 238 4.2 23:39:35 44° E 23:39:35 44° E 23:45:21 10° NE
Nadezhda 4 Rocket 4.0 23:42:13 64° E 23:42:16 64° E 23:48:32 10° NNE
COSMOS 2406 4.2 23:44:14 35° ENE 23:44:14 35° ENE 23:48:00 10° NE
Cosmos 2263 4.1 23:41:18 10° NNW 23:46:42 83° NNW 23:46:42 83° NNW
